Location: Gad�tanya
(48.0500°N, 20.8500°E)
Time: 22:52:02
(UTC+00:00)

ATLAS 2AS CENTAUR R/B - Pass Details

Date: 05 July 2020
Orbit: 930 x 1282 km, 63.7° (Epoch: 19 July)

Event Time Altitude Azimuth Distance (km) Brightness Sun altitude
Rises 22:33:52 0° 316° (NW) 4,155 6.5 -19.3°
Reaches altitude 10° 22:36:56 10° 309° (NW) 3,141 5.7 -19.3°
Maximum altitude 22:43:38 37° 246° (WSW) 1,694 3.5 -19.3°
Enters shadow 22:46:18 28° 206° (SSW) 1,954 3.6 -19.3°
